Wind_Speed
26 27 27 27 27 27 27 27 28 28 29 30 30 31 33 33 33 34 34 35 35 35 35 35 34 35 35 35 34 32 31 31 30 30 30 28 27 27 26 25 24 23 22
25 25 26 26 25 25 25 25 25 25 25 26 27 28 28 29 30 31 33 33 34 35 36 36 36 36 36 35 35 34 32 31 31 31 31 31 29 29 28 27 26 25 24
24 24 23 23 23 23 23 22 22 22 22 23 23 24 25 26 27 28 30 32 33 33 34 36 36 37 37 37 36 34 33 32 32 31 32 33 31 31 30 29 28 27 26
23 23 22 22 22 22 22 21 21 21 20 20 19 20 22 23 24 26 27 29 30 32 33 34 36 37 37 38 39 36 35 35 33 33 33 33 32 31 30 30 29 28 27
23 22 22 22 21 21 21 21 20 19 18 17 17 18 18 20 21 23 24 26 28 30 32 33 34 35 36 37 37 36 36 35 34 34 33 32 33 32 31 30 30 29 28
22 22 22 22 22 21 21 20 20 19 17 16 16 15 15 15 16 18 21 23 25 26 28 30 32 33 36 37 38 38 37 36 35 35 35 34 33 32 32 32 31 30 30
22 22 22 22 22 21 21 20 19 18 16 15 14 14 13 12 13 14 15 17 20 22 24 26 29 31 33 35 36 37 37 37 36 35 35 35 35 34 34 34 34 33 32
22 22 22 22 22 22 21 21 19 17 16 15 14 13 12 10 10 10 11 12 14 17 20 22 25 27 30 32 34 36 37 36 35 35 34 34 35 35 35 34 35 36 35
21 21 22 22 22 22 22 21 20 19 17 16 15 14 12 10 9 8 8 7 9 12 15 18 20 23 25 28 30 33 34 34 33 34 34 34 33 35 35 35 35 35 35
21 22 22 22 22 22 22 22 21 20 19 18 16 15 14 12 9 8 6 5 6 8 11 14 17 19 22 25 27 29 31 31 31 32 31 32 32 34 35 35 35 35 35
21 22 22 22 23 23 23 23 22 21 21 20 19 17 16 14 11 9 8 5 5 6 7 9 11 14 17 19 21 24 27 28 29 29 29 30 32 32 34 35 35 35 35
21 22 22 22 23 23 23 23 23 22 21 20 19 18 17 16 14 12 10 8 6 5 5 6 7 9 11 14 17 19 22 25 26 27 27 27 29 30 31 32 32 33 33
21 22 22 23 23 23 23 24 24 23 23 22 21 20 19 17 15 14 12 10 8 7 6 4 5 7 9 11 13 16 18 21 23 25 25 26 26 27 28 29 30 29 29
20 21 22 23 23 23 23 24 24 24 23 23 22 21 21 19 17 15 14 12 10 8 7 5 4 4 6 9 11 12 15 17 19 20 20 21 22 24 24 24 25 26 27
20 21 22 23 23 24 24 24 24 24 23 23 23 22 22 21 19 18 16 15 13 11 8 6 4 2 3 4 6 9 11 12 15 17 18 18 19 21 22 23 24 24 25
20 21 22 22 23 23 24 24 24 24 23 23 23 23 22 22 21 20 19 17 16 13 11 9 7 5 4 2 3 5 6 9 11 14 15 15 16 17 19 21 22 22 23
20 21 21 22 22 23 23 24 23 23 24 24 23 23 22 22 22 21 20 19 18 16 14 11 9 8 7 5 3 1 3 6 8 10 11 12 13 14 15 16 18 20 21
18 19 20 21 21 22 23 23 23 23 23 23 23 23 23 23 22 21 20 20 19 18 16 14 12 10 9 8 6 3 1 2 4 6 7 8 9 11 12 14 15 16 18
17 18 19 20 21 21 22 22 22 23 23 23 23 23 23 23 23 22 21 20 19 19 18 16 15 13 12 10 8 6 4 2 0 3 5 6 7 8 9 11 13 14 14
16 17 18 19 20 20 21 21 21 22 22 23 23 23 23 23 23 22 22 21 20 19 18 18 17 15 13 11 10 8 6 5 3 2 2 3 4 5 7 8 10 11 12
15 15 16 17 18 19 19 20 21 21 21 21 22 22 22 22 22 22 22 21 20 20 19 18 17 17 16 14 12 10 9 7 6 4 3 3 3 3 5 6 6 7 8
14 14 15 15 16 17 18 18 19 20 20 20 20 21 21 21 21 22 22 22 21 20 20 19 18 18 17 15 14 12 11 10 8 7 6 5 4 4 4 5 5 6 7
13 14 14 14 15 15 16 16 17 18 19 19 19 20 20 20 21 21 21 21 21 20 20 19 19 18 17 16 15 14 12 11 10 9 7 6 6 5 5 5 6 7 7
13 13 13 14 14 14 14 15 15 16 17 17 18 18 19 19 19 20 20 20 20 20 19 19 19 18 18 17 15 14 13 12 10 9 9 8 7 7 7 6 6 7 7
13 13 13 13 13 14 14 14 14 14 15 15 16 16 17 17 17 18 18 19 19 19 19 18 18 18 17 17 16 15 14 13 12 11 10 9 9 8 8 7 6 6 6
14 14 14 14 14 13 13 13 13 13 13 13 14 14 15 15 16 16 16 17 17 17 17 17 17 16 16 16 15 14 14 13 12 12 11 11 10 10 9 9 8 8 7
Wind_Direction
316 314 312 310 309 306 302 297 293 289 285 281 278 274 269 266 262 258 255 252 251 250 250 249 246 245 244 242 241 241 241 241 241 240 240 241 241 241 241 243 243 244 245
322 320 318 317 315 312 308 305 300 295 290 286 280 276 271 267 264 258 253 250 248 248 248 248 246 245 243 243 241 240 240 241 241 240 239 239 240 240 240 242 241 241 242
331 329 327 325 323 320 317 312 308 304 299 293 285 277 272 268 264 260 256 252 249 247 246 245 245 244 242 241 240 238 237 237 239 241 240 238 239 240 240 240 241 241 242
338 335 334 332 330 327 324 320 316 312 308 301 293 284 277 270 265 261 257 252 249 248 247 246 245 243 242 240 238 238 237 237 239 240 240 239 238 238 237 238 240 240 240
343 341 340 339 337 334 331 329 327 323 316 309 300 293 286 278 270 264 260 255 252 250 247 246 244 242 241 238 236 236 236 237 238 237 237 237 238 238 239 238 239 239 239
348 348 348 347 346 344 341 339 337 332 325 320 314 306 298 289 280 272 265 258 253 250 247 244 242 241 240 238 235 234 234 234 236 237 237 236 236 238 239 238 238 238 239
356 355 355 355 355 354 353 351 348 345 340 335 332 326 314 304 294 284 272 261 253 248 246 244 241 240 239 236 235 233 232 233 235 237 239 239 237 238 240 239 238 239 240
1 1 1 3 4 4 2 360 358 356 355 351 347 344 334 323 311 299 283 266 254 250 248 245 242 240 238 237 235 233 234 234 235 236 238 239 239 239 240 240 238 239 240
6 7 7 8 9 9 9 11 10 8 7 5 2 359 355 347 336 322 304 278 261 253 250 246 243 240 238 237 236 235 235 236 235 236 237 239 239 240 239 239 239 239 240
14 14 14 15 15 15 16 16 17 17 17 16 15 12 7 2 356 347 333 302 280 265 260 251 245 241 240 238 235 235 235 235 236 237 238 238 239 240 239 238 238 239 239
17 17 18 19 19 21 20 20 20 21 21 22 21 18 17 14 9 4 356 339 306 288 269 258 248 241 237 234 231 233 232 233 235 236 237 238 238 239 238 238 238 238 238
20 20 20 20 21 22 22 23 23 23 23 22 22 22 21 19 17 15 12 6 354 329 302 275 256 245 238 232 230 231 231 231 231 233 235 235 237 238 237 237 237 237 237
23 23 22 22 23 23 22 22 24 25 25 25 25 24 23 23 22 20 17 13 7 356 341 313 279 256 246 240 238 236 232 232 231 232 235 235 237 236 236 238 238 236 237
22 22 22 23 23 23 22 23 24 25 27 28 28 28 27 26 26 24 22 18 13 5 357 336 308 275 260 247 240 238 231 230 230 231 233 234 236 237 237 237 237 235 235
23 22 22 23 23 23 24 24 25 27 28 29 29 29 29 29 29 29 27 24 21 19 15 15 2 320 280 257 247 239 231 230 229 230 232 234 235 237 238 236 234 232 233
23 22 22 23 24 25 26 26 27 27 28 28 29 30 30 31 31 31 31 31 30 29 29 32 33 26 6 326 290 240 232 234 230 230 233 233 234 236 238 237 234 234 235
22 23 24 25 25 26 27 27 27 27 28 28 29 30 31 32 32 32 32 33 33 34 36 35 34 28 23 20 5 281 247 236 235 234 234 232 232 233 236 236 235 235 235
20 22 24 25 25 25 26 27 27 28 28 29 30 32 32 32 32 33 34 34 35 37 39 40 38 36 34 31 30 26 341 249 229 225 227 225 224 227 230 230 231 233 232
19 21 22 23 24 25 26 27 27 28 29 30 30 31 32 32 33 34 35 36 37 38 39 40 39 36 33 33 32 39 38 34 219 213 212 213 215 218 221 221 224 229 230
13 16 18 20 21 23 24 25 26 27 28 30 30 31 32 33 33 34 35 36 38 38 38 38 36 35 34 36 38 43 46 51 72 107 154 176 197 207 212 215 216 221 225
6 9 12 14 17 19 20 22 23 24 26 27 29 30 31 31 32 32 34 35 36 36 36 36 35 34 35 38 41 45 49 54 64 78 95 117 141 161 179 189 197 205 207
358 1 4 6 9 13 15 18 20 21 22 24 25 27 28 29 30 31 33 33 34 34 35 35 35 35 38 42 45 49 52 57 66 75 85 97 110 126 140 154 164 170 175
349 352 355 357 0 4 7 10 13 15 18 20 22 23 25 27 29 30 32 32 32 33 34 35 36 37 39 43 47 51 55 58 66 72 81 90 99 111 115 123 141 151 154
338 342 345 348 350 353 356 0 4 7 10 13 16 19 21 23 26 28 29 30 31 32 33 34 35 36 40 43 46 50 54 58 63 69 73 79 87 96 105 113 124 138 144
324 328 333 336 340 343 345 349 352 356 1 5 8 12 15 17 20 22 24 27 29 31 32 33 34 37 40 43 47 51 54 58 61 65 69 75 84 91 99 104 109 118 132
311 314 318 322 325 329 333 337 340 343 347 353 357 1 5 9 12 15 18 22 25 27 30 32 34 36 39 42 45 49 54 58 63 66 69 74 81 89 96 101 101 106 115
Height
5854 5849 5845 5841 5837 5833 5829 5826 5823 5820 5818 5816 5815 5814 5814 5814 5815 5817 5819 5822 5824 5827 5830 5833 5835 5838 5840 5843 5846 5849 5852 5855 5858 5861 5864 5866 5869 5871 5874 5875 5877 5879 5880
5849 5844 5839 5835 5831 5827 5823 5819 5815 5813 5810 5808 5807 5806 5805 5805 5806 5807 5809 5811 5814 5817 5820 5823 5826 5829 5831 5834 5838 5841 5844 5847 5850 5853 5856 5859 5863 5865 5867 5870 5872 5873 5875
5844 5840 5835 5830 5826 5822 5817 5814 5810 5807 5804 5801 5799 5798 5797 5797 5797 5798 5800 5802 5804 5807 5810 5813 5816 5819 5822 5825 5829 5832 5835 5839 5842 5845 5849 5852 5855 5858 5861 5863 5865 5867 5869
5841 5836 5832 5827 5822 5818 5813 5809 5805 5802 5798 5795 5793 5791 5790 5789 5789 5790 5791 5793 5795 5798 5800 5803 5806 5808 5812 5816 5819 5823 5827 5830 5834 5837 5841 5844 5847 5850 5853 5856 5859 5861 5863
5839 5834 5829 5824 5819 5815 5810 5805 5801 5797 5794 5791 5788 5786 5784 5783 5782 5783 5783 5784 5786 5788 5791 5794 5796 5799 5803 5806 5810 5814 5818 5822 5825 5829 5832 5835 5839 5843 5845 5849 5852 5854 5857
5837 5832 5827 5822 5817 5812 5807 5802 5798 5794 5790 5787 5784 5782 5780 5778 5777 5776 5776 5777 5778 5780 5782 5785 5788 5791 5794 5797 5801 5805 5809 5813 5816 5820 5824 5827 5831 5834 5838 5841 5844 5847 5849
5836 5831 5826 5821 5815 5810 5805 5800 5796 5791 5788 5784 5781 5778 5776 5773 5772 5771 5770 5770 5771 5773 5775 5777 5779 5782 5785 5788 5792 5796 5800 5804 5808 5811 5815 5818 5822 5826 5829 5832 5836 5839 5842
5836 5831 5826 5821 5815 5810 5805 5800 5795 5790 5786 5782 5779 5776 5773 5771 5769 5767 5766 5766 5766 5767 5768 5770 5772 5774 5777 5780 5783 5788 5791 5795 5799 5803 5806 5810 5813 5817 5821 5824 5827 5830 5834
5836 5831 5826 5821 5816 5811 5805 5800 5795 5790 5786 5782 5778 5775 5772 5769 5767 5765 5763 5762 5762 5763 5764 5765 5766 5768 5770 5773 5776 5780 5783 5787 5790 5794 5798 5801 5805 5808 5812 5816 5819 5822 5825
5837 5832 5827 5822 5817 5812 5807 5801 5796 5791 5787 5783 5779 5775 5772 5769 5766 5764 5762 5761 5760 5760 5760 5760 5762 5763 5765 5767 5770 5773 5776 5780 5783 5786 5790 5793 5797 5800 5803 5807 5810 5813 5817
5839 5834 5829 5824 5819 5814 5809 5803 5798 5793 5789 5784 5780 5776 5773 5769 5766 5763 5761 5760 5758 5758 5757 5757 5757 5758 5760 5761 5764 5766 5770 5773 5776 5780 5783 5786 5789 5792 5795 5798 5801 5804 5808
5841 5836 5831 5826 5821 5816 5811 5806 5800 5795 5790 5786 5782 5778 5774 5770 5767 5764 5761 5759 5758 5756 5755 5755 5755 5755 5756 5757 5759 5761 5764 5767 5770 5773 5776 5779 5782 5785 5787 5790 5793 5796 5800
5843 5838 5834 5829 5824 5819 5813 5808 5803 5798 5793 5788 5784 5779 5775 5772 5768 5765 5762 5760 5758 5756 5754 5753 5753 5753 5753 5754 5755 5757 5759 5761 5764 5767 5770 5772 5775 5777 5780 5783 5786 5789 5792
5845 5840 5836 5831 5826 5821 5816 5811 5805 5800 5795 5791 5786 5782 5778 5773 5770 5766 5763 5760 5758 5756 5754 5752 5751 5751 5751 5752 5752 5753 5755 5757 5759 5761 5763 5766 5768 5771 5773 5776 5779 5782 5785
5847 5842 5838 5833 5828 5824 5818 5813 5808 5803 5798 5794 5789 5785 5780 5776 5772 5768 5765 5762 5759 5756 5754 5752 5751 5750 5750 5749 5750 5750 5751 5752 5754 5756 5758 5761 5763 5765 5767 5769 5772 5775 5778
5849 5844 5840 5835 5831 5826 5821 5816 5811 5807 5802 5797 5792 5788 5783 5779 5774 5771 5767 5763 5760 5757 5754 5752 5751 5749 5749 5748 5747 5747 5749 5750 5751 5753 5754 5756 5758 5759 5761 5763 5766 5769 5772
5851 5847 5842 5838 5833 5829 5824 5819 5815 5810 5805 5801 5796 5791 5787 5782 5778 5774 5770 5766 5763 5759 5756 5754 5752 5750 5749 5748 5747 5746 5747 5748 5749 5750 5751 5752 5753 5755 5757 5759 5761 5763 5766
5853 5848 5844 5840 5836 5832 5827 5822 5818 5813 5809 5804 5799 5795 5790 5786 5782 5777 5773 5769 5766 5762 5759 5756 5754 5752 5750 5748 5747 5746 5746 5746 5746 5747 5748 5749 5750 5751 5753 5755 5757 5759 5761
5854 5850 5846 5842 5838 5834 5830 5825 5821 5817 5812 5808 5803 5799 5794 5790 5785 5781 5777 5773 5769 5766 5762 5759 5756 5754 5752 5750 5748 5747 5746 5746 5745 5746 5746 5747 5748 5749 5750 5752 5753 5755 5757
5855 5852 5848 5844 5841 5837 5832 5828 5824 5820 5816 5811 5807 5802 5798 5794 5789 5785 5781 5777 5773 5769 5766 5762 5759 5756 5753 5751 5749 5748 5747 5746 5746 5745 5746 5746 5747 5747 5748 5749 5751 5752 5754
5856 5853 5849 5846 5842 5839 5835 5831 5827 5823 5819 5815 5810 5806 5802 5798 5793 5789 5785 5781 5777 5773 5769 5766 5762 5759 5756 5753 5751 5749 5748 5747 5746 5746 5746 5746 5746 5747 5748 5748 5749 5751 5752
5856 5853 5850 5847 5844 5840 5837 5833 5829 5825 5822 5818 5814 5809 5805 5801 5797 5793 5789 5784 5780 5777 5773 5769 5766 5762 5759 5756 5754 5752 5751 5749 5748 5748 5747 5747 5748 5748 5748 5749 5750 5751 5752
5856 5853 5850 5847 5844 5841 5838 5835 5831 5827 5824 5820 5816 5813 5809 5805 5800 5796 5792 5788 5784 5780 5777 5773 5770 5766 5763 5760 5758 5755 5754 5752 5751 5750 5750 5749 5749 5750 5750 5750 5751 5752 5753
5855 5852 5850 5847 5844 5841 5838 5835 5832 5829 5826 5822 5819 5815 5811 5808 5804 5800 5796 5792 5788 5784 5780 5777 5773 5770 5767 5764 5761 5759 5757 5756 5754 5753 5753 5752 5751 5751 5752 5752 5752 5753 5754
5853 5851 5849 5846 5844 5841 5838 5835 5833 5830 5827 5823 5820 5817 5813 5810 5806 5803 5799 5795 5792 5788 5784 5781 5777 5774 5771 5768 5765 5763 5761 5759 5758 5757 5756 5755 5754 5754 5754 5754 5755 5755 5756
5851 5849 5847 5844 5842 5840 5837 5835 5832 5829 5827 5824 5821 5818 5815 5811 5808 5805 5801 5798 5795 5791 5787 5784 5781 5778 5775 5772 5769 5767 5765 5763 5762 5760 5759 5758 5757 5757 5757 5757 5757 5757 5758